Total_Precipitation_Accumulation
0.04 0.05 0.04 0.05 0.03 0.02 0.03 0.03 0.03 0.04 0.03 0.04 0.03 0.03 0.03 0.03 0.02 0.02 0.02 0.03 0.02 0.02 0.02 0.01 0.01 0.01 0.00 0.01 0.00 0.00 0.00 0.01 0.00 0.00 0.00 0.00 0.00 0.00 0.00 0.00 0.00 0.00 0.00 0.00 0.00 0.00 0.00 0.00 0.00 0.00 0.00 0.00 0.00 0.00 0.00 0.00 0.00 0.00 0.00 0.00 0.00 0.00 0.00 0.00 0.00 0.00 0.00 0.00 0.00 0.00 0.00 0.00 0.00 0.00 0.00 0.00 0.00 0.01 0.00 0.02 0.02 0.03 0.09 0.07 0.12 0.15 0.09 0.14
0.05 0.04 0.04 0.04 0.02 0.03 0.03 0.03 0.03 0.03 0.02 0.02 0.02 0.02 0.03 0.02 0.03 0.02 0.02 0.01 0.02 0.02 0.01 0.03 0.01 0.01 0.01 0.00 0.00 0.00 0.00 0.00 0.00 0.00 0.00 0.00 0.00 0.00 0.00 0.00 0.00 0.00 0.00 0.00 0.00 0.00 0.00 0.00 0.00 0.00 0.00 0.00 0.00 0.00 0.00 0.00 0.00 0.00 0.00 0.00 0.00 0.00 0.00 0.00 0.00 0.00 0.00 0.00 0.00 0.00 0.00 0.00 0.00 0.01 0.00 0.01 0.00 0.00 0.01 0.06 0.04 0.14 0.19 0.10 0.14 0.10 0.15 0.17
0.04 0.04 0.03 0.02 0.03 0.04 0.04 0.03 0.04 0.03 0.02 0.02 0.02 0.03 0.02 0.02 0.03 0.02 0.02 0.03 0.03 0.02 0.01 0.01 0.01 0.00 0.00 0.00 0.00 0.00 0.00 0.00 0.00 0.00 0.00 0.00 0.00 0.00 0.00 0.00 0.00 0.00 0.00 0.00 0.00 0.00 0.00 0.00 0.00 0.00 0.00 0.00 0.00 0.00 0.00 0.00 0.00 0.00 0.00 0.00 0.00 0.00 0.00 0.00 0.00 0.00 0.00 0.00 0.00 0.00 0.00 0.00 0.00 0.00 0.00 0.03 0.01 0.00 0.01 0.07 0.07 0.12 0.26 0.12 0.15 0.15 0.13 0.31
0.04 0.03 0.03 0.03 0.03 0.03 0.03 0.03 0.02 0.02 0.02 0.03 0.02 0.03 0.04 0.03 0.02 0.02 0.03 0.03 0.01 0.01 0.01 0.00 0.00 0.00 0.00 0.00 0.00 0.00 0.00 0.00 0.00 0.00 0.00 0.00 0.00 0.00 0.00 0.00 0.00 0.00 0.00 0.00 0.00 0.00 0.00 0.00 0.00 0.00 0.00 0.00 0.00 0.00 0.00 0.00 0.00 0.00 0.00 0.00 0.00 0.00 0.00 0.00 0.00 0.00 0.00 0.00 0.00 0.00 0.00 0.00 0.00 0.00 0.00 0.00 0.02 0.01 0.10 0.00 0.03 0.11 0.22 0.17 0.20 0.18 0.17 0.27
0.05 0.03 0.04 0.02 0.02 0.02 0.03 0.02 0.02 0.02 0.03 0.03 0.03 0.03 0.05 0.03 0.02 0.02 0.02 0.01 0.01 0.01 0.01 0.00 0.00 0.00 0.00 0.00 0.00 0.00 0.00 0.00 0.00 0.00 0.00 0.00 0.00 0.00 0.00 0.00 0.00 0.00 0.00 0.00 0.00 0.00 0.00 0.00 0.00 0.00 0.00 0.00 0.00 0.00 0.00 0.00 0.00 0.00 0.00 0.00 0.00 0.00 0.00 0.00 0.00 0.00 0.00 0.00 0.00 0.00 0.00 0.00 0.00 0.00 0.00 0.01 0.02 0.24 0.04 0.01 0.02 0.42 0.81 0.16 0.27 0.12 0.24 0.31
0.03 0.03 0.03 0.02 0.02 0.03 0.03 0.02 0.02 0.03 0.03 0.03 0.03 0.02 0.03 0.03 0.03 0.03 0.02 0.01 0.01 0.01 0.00 0.00 0.00 0.00 0.00 0.00 0.00 0.00 0.00 0.00 0.00 0.00 0.00 0.00 0.00 0.00 0.00 0.00 0.00 0.00 0.00 0.00 0.00 0.00 0.00 0.00 0.00 0.00 0.00 0.00 0.00 0.00 0.00 0.00 0.00 0.00 0.00 0.00 0.00 0.00 0.00 0.00 0.00 0.00 0.00 0.00 0.00 0.00 0.00 0.00 0.00 0.00 0.00 0.00 0.04 0.05 0.01 0.01 0.00 0.08 0.41 0.27 0.22 0.13 0.21 0.56
0.02 0.03 0.03 0.02 0.02 0.03 0.03 0.04 0.04 0.03 0.03 0.03 0.04 0.03 0.02 0.03 0.02 0.02 0.02 0.01 0.01 0.01 0.00 0.00 0.00 0.00 0.00 0.00 0.00 0.00 0.00 0.00 0.00 0.00 0.00 0.00 0.00 0.00 0.00 0.00 0.00 0.00 0.00 0.00 0.00 0.00 0.00 0.00 0.00 0.00 0.00 0.00 0.00 0.00 0.00 0.00 0.00 0.00 0.00 0.00 0.00 0.00 0.00 0.00 0.00 0.00 0.00 0.00 0.00 0.00 0.00 0.00 0.00 0.00 0.00 0.00 0.00 0.00 0.01 0.02 0.04 0.14 0.30 0.17 0.14 0.36 0.25 0.22
0.03 0.03 0.02 0.02 0.02 0.02 0.03 0.03 0.02 0.02 0.02 0.04 0.03 0.02 0.02 0.02 0.04 0.03 0.01 0.01 0.01 0.00 0.01 0.00 0.00 0.00 0.00 0.00 0.00 0.00 0.00 0.00 0.00 0.00 0.00 0.00 0.00 0.00 0.00 0.00 0.00 0.00 0.00 0.00 0.00 0.00 0.00 0.00 0.00 0.00 0.00 0.00 0.00 0.00 0.00 0.00 0.00 0.00 0.00 0.00 0.00 0.00 0.00 0.00 0.00 0.00 0.00 0.00 0.00 0.00 0.00 0.00 0.00 0.00 0.00 0.00 0.00 0.00 0.01 0.01 0.03 0.13 0.25 0.09 0.09 0.21 0.19 0.17
0.02 0.01 0.01 0.01 0.02 0.02 0.03 0.02 0.02 0.02 0.03 0.02 0.03 0.02 0.03 0.03 0.03 0.02 0.01 0.02 0.01 0.01 0.00 0.00 0.00 0.00 0.00 0.00 0.00 0.00 0.00 0.00 0.00 0.00 0.00 0.00 0.00 0.00 0.00 0.00 0.00 0.00 0.00 0.00 0.00 0.00 0.00 0.00 0.00 0.00 0.00 0.00 0.00 0.00 0.00 0.00 0.00 0.00 0.00 0.00 0.00 0.00 0.00 0.00 0.00 0.00 0.00 0.00 0.00 0.00 0.00 0.00 0.00 0.00 0.00 0.00 0.00 0.00 0.00 0.01 0.03 0.17 0.13 0.13 0.14 0.11 0.32 0.29
0.01 0.01 0.01 0.02 0.02 0.02 0.02 0.02 0.03 0.03 0.02 0.03 0.03 0.03 0.03 0.02 0.01 0.02 0.01 0.01 0.00 0.01 0.00 0.00 0.00 0.00 0.00 0.00 0.00 0.00 0.00 0.00 0.00 0.00 0.00 0.00 0.00 0.00 0.00 0.00 0.00 0.00 0.00 0.00 0.00 0.00 0.00 0.00 0.00 0.00 0.00 0.00 0.00 0.00 0.00 0.00 0.00 0.00 0.00 0.00 0.00 0.00 0.00 0.00 0.00 0.00 0.00 0.00 0.00 0.00 0.00 0.00 0.00 0.00 0.00 0.00 0.00 0.01 0.00 0.03 0.12 0.17 0.13 0.05 0.21 0.23 0.38 0.31
0.01 0.01 0.01 0.01 0.02 0.01 0.02 0.02 0.02 0.02 0.03 0.01 0.03 0.03 0.02 0.01 0.02 0.01 0.02 0.00 0.01 0.01 0.01 0.00 0.01 0.00 0.00 0.00 0.00 0.00 0.00 0.00 0.00 0.00 0.00 0.00 0.00 0.00 0.00 0.00 0.00 0.00 0.00 0.00 0.00 0.00 0.00 0.00 0.00 0.00 0.00 0.00 0.00 0.00 0.00 0.00 0.00 0.00 0.00 0.00 0.00 0.00 0.00 0.00 0.00 0.00 0.00 0.00 0.00 0.00 0.00 0.00 0.00 0.00 0.00 0.00 0.01 0.00 0.00 0.03 0.04 0.07 0.15 0.17 0.26 0.30 0.25 0.35
0.01 0.01 0.01 0.01 0.02 0.02 0.02 0.02 0.02 0.02 0.01 0.02 0.02 0.01 0.01 0.01 0.01 0.01 0.01 0.01 0.01 0.01 0.00 0.00 0.01 0.03 0.01 0.00 0.00 0.00 0.00 0.00 0.00 0.00 0.00 0.00 0.00 0.00 0.00 0.00 0.00 0.00 0.00 0.00 0.00 0.00 0.00 0.00 0.00 0.00 0.00 0.00 0.00 0.00 0.00 0.00 0.00 0.00 0.00 0.00 0.00 0.00 0.00 0.00 0.00 0.00 0.00 0.00 0.00 0.00 0.00 0.00 0.00 0.00 0.00 0.00 0.00 0.00 0.00 0.03 0.04 0.07 0.08 0.12 0.12 0.17 0.15 0.44
0.01 0.01 0.01 0.01 0.01 0.03 0.01 0.01 0.02 0.02 0.02 0.01 0.01 0.01 0.01 0.01 0.01 0.01 0.01 0.01 0.00 0.00 0.00 0.01 0.00 0.00 0.01 0.00 0.00 0.00 0.00 0.00 0.00 0.00 0.00 0.00 0.00 0.00 0.00 0.00 0.00 0.00 0.00 0.00 0.00 0.00 0.00 0.00 0.00 0.00 0.00 0.00 0.00 0.00 0.00 0.00 0.00 0.00 0.00 0.00 0.00 0.00 0.00 0.00 0.00 0.00 0.00 0.00 0.00 0.00 0.00 0.00 0.00 0.00 0.00 0.02 0.00 0.01 0.01 0.02 0.02 0.06 0.08 0.12 0.22 0.17 0.24 0.30
0.01 0.01 0.02 0.01 0.01 0.01 0.02 0.02 0.02 0.02 0.02 0.01 0.01 0.01 0.01 0.00 0.00 0.01 0.01 0.00 0.00 0.01 0.01 0.00 0.03 0.03 0.02 0.00 0.00 0.00 0.00 0.00 0.00 0.00 0.00 0.00 0.00 0.00 0.00 0.00 0.00 0.00 0.00 0.00 0.00 0.00 0.00 0.00 0.00 0.00 0.00 0.00 0.00 0.00 0.00 0.00 0.00 0.00 0.00 0.00 0.00 0.00 0.00 0.00 0.00 0.00 0.00 0.00 0.00 0.00 0.00 0.00 0.00 0.00 0.00 0.01 0.00 0.00 0.01 0.03 0.11 0.22 0.15 0.13 0.24 0.13 0.20 0.27
0.01 0.01 0.01 0.01 0.02 0.01 0.03 0.02 0.02 0.01 0.01 0.02 0.01 0.00 0.00 0.00 0.00 0.00 0.01 0.00 0.01 0.00 0.01 0.03 0.02 0.01 0.01 0.00 0.00 0.00 0.00 0.00 0.00 0.00 0.00 0.00 0.00 0.00 0.00 0.00 0.00 0.00 0.00 0.00 0.00 0.00 0.00 0.00 0.00 0.00 0.00 0.00 0.00 0.00 0.00 0.00 0.00 0.00 0.00 0.00 0.00 0.00 0.00 0.00 0.00 0.00 0.00 0.00 0.00 0.00 0.00 0.00 0.00 0.00 0.00 0.01 0.01 0.00 0.00 0.10 0.15 0.43 0.47 0.31 0.31 0.28 0.39 0.63
0.01 0.02 0.01 0.01 0.01 0.02 0.01 0.02 0.01 0.01 0.00 0.01 0.00 0.00 0.00 0.01 0.00 0.00 0.01 0.00 0.00 0.01 0.00 0.00 0.01 0.01 0.00 0.00 0.00 0.00 0.00 0.00 0.00 0.00 0.00 0.00 0.00 0.00 0.00 0.00 0.00 0.00 0.00 0.00 0.00 0.00 0.00 0.00 0.00 0.00 0.00 0.00 0.00 0.00 0.00 0.00 0.00 0.00 0.00 0.00 0.00 0.00 0.00 0.00 0.00 0.00 0.00 0.00 0.00 0.00 0.00 0.00 0.00 0.00 0.00 0.01 0.01 0.01 0.00 0.05 0.19 0.15 0.12 0.26 0.29 0.56 0.41 0.41
0.01 0.01 0.02 0.01 0.02 0.02 0.01 0.01 0.01 0.00 0.01 0.00 0.00 0.00 0.00 0.00 0.00 0.00 0.00 0.01 0.01 0.02 0.04 0.00 0.00 0.01 0.00 0.00 0.00 0.00 0.00 0.00 0.00 0.00 0.00 0.00 0.00 0.00 0.00 0.00 0.00 0.00 0.00 0.00 0.00 0.00 0.00 0.00 0.00 0.00 0.00 0.00 0.00 0.00 0.00 0.00 0.00 0.00 0.00 0.00 0.01 0.00 0.00 0.00 0.00 0.00 0.00 0.00 0.00 0.00 0.00 0.00 0.00 0.00 0.00 0.02 0.01 0.01 0.01 0.05 0.06 0.09 0.09 0.11 0.11 0.16 0.33 0.46
0.02 0.02 0.02 0.02 0.01 0.01 0.01 0.01 0.01 0.01 0.00 0.00 0.01 0.00 0.01 0.00 0.00 0.00 0.01 0.01 0.00 0.00 0.01 0.00 0.00 0.01 0.00 0.00 0.00 0.00 0.00 0.00 0.00 0.00 0.00 0.00 0.00 0.00 0.00 0.00 0.00 0.00 0.00 0.00 0.00 0.00 0.00 0.00 0.00 0.00 0.00 0.00 0.00 0.00 0.00 0.00 0.00 0.00 0.00 0.00 0.00 0.00 0.00 0.00 0.00 0.00 0.00 0.00 0.00 0.00 0.00 0.00 0.00 0.00 0.00 0.00 0.01 0.02 0.01 0.03 0.04 0.10 0.13 0.27 0.14 0.09 0.17 0.20
0.03 0.02 0.02 0.02 0.01 0.01 0.01 0.01 0.00 0.01 0.00 0.00 0.00 0.00 0.00 0.00 0.00 0.00 0.00 0.01 0.01 0.01 0.00 0.01 0.01 0.00 0.01 0.00 0.00 0.00 0.00 0.00 0.00 0.00 0.00 0.00 0.00 0.00 0.00 0.00 0.00 0.00 0.00 0.00 0.00 0.00 0.00 0.00 0.00 0.00 0.00 0.00 0.00 0.00 0.00 0.00 0.00 0.00 0.00 0.00 0.00 0.01 0.00 0.00 0.00 0.00 0.00 0.00 0.00 0.00 0.00 0.00 0.01 0.00 0.00 0.01 0.02 0.01 0.01 0.02 0.05 0.09 0.08 0.07 0.09 0.07 0.16 0.19
0.02 0.01 0.02 0.01 0.01 0.01 0.01 0.00 0.01 0.01 0.01 0.01 0.01 0.00 0.01 0.01 0.08 0.01 0.01 0.02 0.00 0.00 0.00 0.00 0.00 0.00 0.00 0.00 0.00 0.00 0.00 0.00 0.00 0.00 0.00 0.00 0.00 0.00 0.00 0.00 0.00 0.00 0.00 0.00 0.00 0.00 0.00 0.00 0.00 0.00 0.00 0.00 0.00 0.00 0.00 0.00 0.00 0.00 0.00 0.00 0.00 0.00 0.00 0.00 0.00 0.00 0.00 0.00 0.00 0.00 0.00 0.00 0.00 0.00 0.00 0.00 0.02 0.02 0.02 0.03 0.03 0.13 0.06 0.04 0.09 0.17 0.10 0.16
0.02 0.02 0.01 0.01 0.01 0.01 0.00 0.00 0.00 0.00 0.01 0.06 0.01 0.00 0.00 0.00 0.03 0.07 0.02 0.00 0.00 0.00 0.00 0.00 0.00 0.00 0.00 0.00 0.00 0.00 0.00 0.00 0.00 0.00 0.00 0.00 0.00 0.00 0.00 0.00 0.00 0.00 0.00 0.00 0.00 0.00 0.00 0.00 0.00 0.00 0.00 0.00 0.00 0.00 0.00 0.00 0.00 0.00 0.00 0.00 0.00 0.00 0.00 0.00 0.00 0.00 0.00 0.00 0.00 0.00 0.01 0.00 0.00 0.00 0.00 0.00 0.01 0.02 0.01 0.01 0.02 0.03 0.04 0.08 0.13 0.13 0.13 0.23
0.02 0.02 0.02 0.03 0.01 0.01 0.01 0.01 0.00 0.00 0.01 0.03 0.01 0.00 0.00 0.00 0.00 0.00 0.00 0.04 0.00 0.00 0.00 0.00 0.00 0.00 0.00 0.00 0.00 0.00 0.00 0.00 0.00 0.00 0.00 0.00 0.00 0.00 0.00 0.00 0.00 0.00 0.00 0.00 0.00 0.00 0.00 0.00 0.00 0.00 0.00 0.00 0.00 0.00 0.00 0.00 0.00 0.00 0.00 0.00 0.00 0.01 0.00 0.00 0.00 0.00 0.00 0.00 0.00 0.00 0.01 0.00 0.00 0.00 0.00 0.00 0.01 0.01 0.01 0.01 0.01 0.01 0.03 0.03 0.13 0.68 0.56 0.58
0.03 0.02 0.01 0.01 0.01 0.00 0.01 0.01 0.00 0.00 0.01 0.01 0.00 0.00 0.00 0.00 0.00 0.00 0.00 0.00 0.00 0.00 0.00 0.00 0.00 0.00 0.00 0.00 0.00 0.00 0.00 0.00 0.00 0.00 0.00 0.00 0.00 0.00 0.00 0.00 0.00 0.00 0.00 0.00 0.00 0.00 0.00 0.00 0.00 0.00 0.00 0.00 0.00 0.00 0.00 0.00 0.00 0.00 0.00 0.00 0.00 0.00 0.00 0.03 0.00 0.00 0.00 0.00 0.00 0.00 0.03 0.01 0.00 0.00 0.00 0.00 0.01 0.01 0.01 0.01 0.01 0.01 0.14 0.14 0.26 0.41 0.26 0.21
0.03 0.02 0.01 0.01 0.01 0.01 0.00 0.00 0.01 0.01 0.00 0.00 0.00 0.00 0.00 0.00 0.00 0.00 0.00 0.00 0.00 0.00 0.00 0.00 0.00 0.00 0.00 0.00 0.00 0.00 0.00 0.00 0.00 0.00 0.00 0.00 0.00 0.00 0.00 0.00 0.00 0.00 0.00 0.00 0.00 0.00 0.00 0.00 0.00 0.00 0.00 0.00 0.00 0.00 0.00 0.00 0.00 0.00 0.00 0.00 0.00 0.00 0.00 0.00 0.06 0.00 0.00 0.00 0.00 0.00 0.02 0.01 0.00 0.00 0.00 0.00 0.00 0.01 0.01 0.02 0.01 0.01 0.03 0.04 0.07 0.21 0.21 0.24
0.02 0.01 0.02 0.01 0.01 0.01 0.00 0.00 0.00 0.00 0.01 0.00 0.00 0.00 0.00 0.00 0.00 0.00 0.01 0.01 0.01 0.00 0.00 0.00 0.00 0.00 0.00 0.00 0.00 0.00 0.00 0.00 0.00 0.00 0.00 0.00 0.00 0.00 0.00 0.00 0.00 0.00 0.00 0.00 0.00 0.00 0.00 0.00 0.00 0.00 0.00 0.00 0.00 0.00 0.00 0.00 0.00 0.00 0.00 0.00 0.00 0.00 0.00 0.00 0.00 0.00 0.00 0.02 0.00 0.01 0.02 0.05 0.01 0.00 0.00 0.00 0.00 0.01 0.01 0.01 0.01 0.02 0.06 0.04 0.08 0.23 0.32 0.28
0.03 0.02 0.02 0.03 0.01 0.00 0.00 0.00 0.01 0.00 0.00 0.00 0.01 0.00 0.00 0.00 0.00 0.00 0.02 0.08 0.02 0.06 0.01 0.00 0.00 0.00 0.00 0.00 0.00 0.00 0.00 0.00 0.00 0.00 0.00 0.00 0.00 0.00 0.00 0.00 0.00 0.00 0.00 0.00 0.00 0.00 0.00 0.00 0.00 0.00 0.00 0.00 0.00 0.00 0.00 0.00 0.00 0.00 0.03 0.00 0.00 0.00 0.00 0.00 0.00 0.00 0.00 0.02 0.04 0.00 0.01 0.04 0.01 0.01 0.00 0.00 0.00 0.01 0.01 0.02 0.03 0.04 0.05 0.06 0.13 0.29 0.24 0.23
0.02 0.02 0.02 0.01 0.01 0.02 0.01 0.01 0.00 0.00 0.02 0.00 0.00 0.01 0.00 0.00 0.00 0.01 0.03 0.04 0.08 0.13 0.00 0.02 0.00 0.00 0.00 0.00 0.00 0.00 0.00 0.00 0.00 0.00 0.00 0.00 0.00 0.00 0.00 0.00 0.00 0.00 0.00 0.00 0.00 0.00 0.00 0.00 0.00 0.00 0.00 0.00 0.00 0.00 0.00 0.00 0.00 0.02 0.01 0.00 0.00 0.01 0.00 0.00 0.00 0.00 0.01 0.00 0.01 0.00 0.01 0.06 0.06 0.06 0.00 0.00 0.01 0.02 0.03 0.03 0.05 0.06 0.11 0.08 0.18 0.20 0.17 0.19
0.01 0.01 0.02 0.01 0.01 0.03 0.06 0.03 0.00 0.00 0.01 0.02 0.01 0.00 0.01 0.00 0.00 0.01 0.09 0.13 0.02 0.01 0.03 0.00 0.00 0.00 0.00 0.00 0.00 0.00 0.00 0.00 0.00 0.00 0.00 0.00 0.00 0.00 0.00 0.00 0.00 0.00 0.00 0.00 0.01 0.00 0.00 0.00 0.00 0.00 0.00 0.00 0.00 0.00 0.00 0.00 0.00 0.01 0.00 0.00 0.00 0.00 0.02 0.00 0.00 0.01 0.05 0.01 0.04 0.00 0.01 0.03 0.08 0.08 0.00 0.00 0.02 0.03 0.07 0.05 0.10 0.12 0.11 0.25 0.26 0.20 0.13 0.13
0.02 0.02 0.01 0.01 0.01 0.01 0.02 0.03 0.01 0.01 0.00 0.01 0.00 0.00 0.00 0.00 0.02 0.16 0.43 0.18 0.51 0.00 0.00 0.09 0.00 0.00 0.00 0.00 0.00 0.00 0.00 0.00 0.00 0.00 0.00 0.00 0.00 0.00 0.00 0.00 0.00 0.00 0.00 0.00 0.00 0.01 0.00 0.00 0.00 0.00 0.00 0.00 0.00 0.00 0.00 0.00 0.01 0.00 0.00 0.00 0.00 0.00 0.00 0.00 0.02 0.00 0.09 0.00 0.04 0.05 0.10 0.02 0.12 0.05 0.05 0.01 0.03 0.13 0.12 0.15 0.15 0.13 0.15 0.20 0.13 0.14 0.13 0.15
0.02 0.01 0.02 0.01 0.02 0.02 0.02 0.04 0.02 0.00 0.00 0.00 0.00 0.00 0.00 0.01 0.20 0.20 0.25 0.05 0.30 0.21 0.00 0.03 0.00 0.00 0.00 0.00 0.00 0.00 0.00 0.00 0.00 0.00 0.00 0.00 0.00 0.00 0.00 0.00 0.00 0.00 0.00 0.00 0.00 0.00 0.00 0.00 0.00 0.00 0.00 0.00 0.00 0.00 0.00 0.00 0.00 0.00 0.00 0.00 0.00 0.00 0.03 0.01 0.00 0.05 0.05 0.03 0.03 0.03 0.02 0.01 0.18 0.14 0.07 0.07 0.13 0.05 0.17 0.12 0.16 0.11 0.09 0.15 0.13 0.14 0.15 0.21
0.02 0.02 0.02 0.03 0.09 0.00 0.01 0.00 0.00 0.00 0.01 0.00 0.00 0.00 0.02 0.17 0.27 0.30 0.05 0.05 0.03 0.12 0.00 0.00 0.00 0.00 0.00 0.00 0.01 0.00 0.00 0.00 0.00 0.00 0.00 0.00 0.00 0.00 0.00 0.02 0.01 0.01 0.00 0.00 0.00 0.00 0.00 0.00 0.00 0.00 0.00 0.00 0.00 0.00 0.00 0.00 0.00 0.00 0.00 0.02 0.00 0.02 0.00 0.01 0.05 0.04 0.09 0.01 0.03 0.02 0.01 0.02 0.14 0.22 0.16 0.14 0.06 0.10 0.09 0.15 0.14 0.17 0.17 0.13 0.17 0.17 0.13 0.20
0.02 0.02 0.01 0.12 0.03 0.03 0.06 0.00 0.03 0.00 0.00 0.01 0.00 0.01 0.17 0.29 0.15 0.20 0.07 0.01 0.27 0.29 0.14 0.06 0.00 0.00 0.00 0.00 0.00 0.00 0.00 0.00 0.00 0.00 0.00 0.00 0.00 0.00 0.00 0.00 0.00 0.00 0.01 0.01 0.04 0.00 0.00 0.00 0.00 0.00 0.00 0.00 0.00 0.00 0.00 0.00 0.00 0.00 0.00 0.02 0.21 0.19 0.02 0.10 0.05 0.03 0.00 0.03 0.08 0.00 0.01 0.02 0.02 0.20 0.40 0.19 0.09 0.12 0.11 0.11 0.11 0.10 0.12 0.11 0.14 0.17 0.18 0.15
0.01 0.02 0.05 0.05 0.02 0.03 0.01 0.00 0.00 0.01 0.01 0.01 0.01 0.02 0.34 0.24 0.07 0.05 0.15 0.06 0.44 0.08 0.10 0.03 0.02 0.01 0.02 0.00 0.00 0.00 0.00 0.02 0.02 0.00 0.00 0.00 0.00 0.00 0.00 0.01 0.00 0.00 0.05 0.06 0.02 0.00 0.00 0.00 0.00 0.00 0.00 0.00 0.00 0.00 0.02 0.01 0.00 0.00 0.03 0.08 0.08 0.17 0.07 0.02 0.07 0.02 0.06 0.02 0.02 0.05 0.02 0.05 0.22 0.21 0.25 0.44 0.18 0.15 0.10 0.08 0.09 0.10 0.11 0.10 0.13 0.14 0.18 0.23
0.02 0.04 0.08 0.02 0.04 0.01 0.00 0.00 0.00 0.00 0.00 0.01 0.00 0.12 0.54 0.12 0.06 0.03 0.10 0.22 0.46 0.14 0.03 0.15 0.05 0.01 0.00 0.05 0.01 0.01 0.02 0.01 0.00 0.00 0.00 0.02 0.01 0.02 0.00 0.00 0.00 0.02 0.00 0.01 0.01 0.02 0.07 0.10 0.00 0.00 0.01 0.00 0.00 0.00 0.01 0.02 0.01 0.01 0.00 0.00 0.08 0.11 0.07 0.02 0.05 0.05 0.03 0.18 0.07 0.05 0.01 0.09 0.15 0.67 0.39 0.46 0.27 0.12 0.07 0.08 0.08 0.11 0.14 0.17 0.16 0.18 0.53 0.92
0.01 0.01 0.01 0.01 0.01 0.00 0.00 0.00 0.01 0.01 0.01 0.05 0.05 0.17 0.10 0.06 0.06 0.09 0.09 0.13 0.18 0.23 0.09 0.10 0.08 0.03 0.07 0.01 0.01 0.01 0.00 0.11 0.00 0.01 0.00 0.00 0.04 0.01 0.01 0.00 0.00 0.00 0.01 0.02 0.03 0.01 0.00 0.02 0.01 0.00 0.00 0.00 0.00 0.00 0.00 0.00 0.01 0.01 0.00 0.00 0.03 0.02 0.00 0.10 0.24 0.03 0.14 0.08 0.06 0.05 0.05 0.31 0.88 0.70 0.53 0.26 0.17 0.05 0.05 0.07 0.19 0.13 0.14 0.19 0.15 0.33 0.27 0.24
0.01 0.01 0.01 0.01 0.01 0.00 0.00 0.00 0.01 0.09 0.03 0.06 0.13 0.11 0.08 0.03 0.22 0.10 0.28 0.09 0.65 0.36 0.04 0.05 0.15 0.10 0.03 0.03 0.00 0.05 0.02 0.09 0.03 0.03 0.03 0.00 0.01 0.03 0.00 0.00 0.00 0.00 0.04 0.00 0.12 0.04 0.01 0.12 0.00 0.01 0.00 0.00 0.00 0.00 0.00 0.00 0.13 0.18 0.00 0.05 0.02 0.01 0.02 0.04 0.00 0.00 0.00 0.00 0.04 0.00 0.11 0.27 0.24 1.12 0.26 0.58 0.23 0.15 0.11 0.13 0.13 0.24 0.16 0.26 0.32 0.30 0.49 0.89
0.02 0.02 0.05 0.00 0.00 0.00 0.01 0.00 0.00 0.02 0.03 0.07 0.14 0.06 0.01 0.04 0.05 0.08 0.22 0.17 0.41 0.28 0.08 0.36 0.17 0.18 0.13 0.04 0.05 0.01 0.10 0.01 0.16 0.02 0.15 0.00 0.05 0.01 0.01 0.00 0.00 0.00 0.00 0.00 0.06 0.00 0.06 0.22 0.01 0.02 0.00 0.00 0.00 0.00 0.00 0.00 0.00 0.00 0.02 0.03 0.00 0.00 0.02 0.02 0.12 0.04 0.01 0.02 0.13 0.03 0.08 0.46 0.09 0.93 0.67 0.44 0.21 0.20 0.21 0.25 0.15 0.36 0.57 0.57 0.52 0.56 0.75 1.19
0.05 0.05 0.06 0.02 0.01 0.00 0.00 0.01 0.00 0.02 0.03 0.08 0.10 0.01 0.01 0.02 0.10 0.03 0.22 0.16 0.15 0.31 0.32 0.26 0.31 0.07 0.07 0.06 0.03 0.02 0.05 0.06 0.30 0.03 0.19 0.02 0.22 0.00 0.01 0.01 0.00 0.00 0.00 0.00 0.01 0.07 0.00 0.08 0.03 0.00 0.00 0.00 0.00 0.00 0.00 0.00 0.00 0.00 0.07 0.00 0.02 0.06 0.05 0.03 0.00 0.03 0.02 0.01 0.09 0.08 0.11 0.10 0.15 0.50 0.22 0.51 0.23 0.28 0.24 0.25 0.28 0.21 0.28 0.41 0.75 0.88 0.99 1.75
0.06 0.16 0.19 0.03 0.01 0.01 0.01 0.01 0.01 0.03 0.09 0.08 0.02 0.07 0.00 0.03 0.14 0.08 0.11 0.11 0.09 0.28 0.10 0.15 0.30 0.17 0.16 0.06 0.05 0.04 0.06 0.13 0.08 0.14 0.16 0.21 0.23 0.03 0.11 0.01 0.04 0.00 0.00 0.00 0.00 0.01 0.00 0.02 0.07 0.00 0.00 0.02 0.00 0.00 0.02 0.00 0.00 0.00 0.00 0.00 0.00 0.00 0.05 0.08 0.02 0.15 0.01 0.18 0.04 0.17 0.09 0.26 0.15 0.42 0.21 0.32 0.22 0.30 0.25 0.32 0.33 0.36 0.35 0.54 1.21 0.87 0.82 1.21
0.12 0.25 0.38 0.13 0.01 0.01 0.04 0.02 0.04 0.07 0.07 0.02 0.02 0.01 0.01 0.02 0.01 0.04 0.14 0.10 0.20 0.16 0.07 0.12 0.18 0.34 0.05 0.06 0.02 0.10 0.13 0.09 0.09 0.22 0.10 0.40 0.07 0.05 0.08 0.00 0.08 0.00 0.00 0.00 0.00 0.00 0.03 0.00 0.11 0.06 0.00 0.00 0.04 0.00 0.01 0.01 0.04 0.00 0.00 0.00 0.01 0.01 0.03 0.01 0.10 0.02 0.17 0.13 0.09 0.11 0.13 0.48 0.48 0.18 0.13 0.26 0.29 0.35 0.54 0.65 0.74 0.67 0.77 0.88 1.06 1.40 1.28 1.40
0.12 0.54 0.70 0.21 0.20 0.03 0.11 0.06 0.07 0.06 0.01 0.00 0.00 0.01 0.00 0.02 0.03 0.06 0.07 0.04 0.08 0.11 0.10 0.06 0.11 0.11 0.12 0.06 0.08 0.01 0.04 0.05 0.14 0.28 0.07 0.11 0.03 0.23 0.00 0.05 0.00 0.07 0.00 0.02 0.01 0.04 0.00 0.00 0.03 0.01 0.03 0.01 0.01 0.00 0.01 0.00 0.00 0.00 0.01 0.05 0.05 0.09 0.16 0.10 0.10 0.00 0.08 0.04 0.11 0.10 0.19 0.54 0.29 0.22 0.32 0.35 0.49 0.50 0.56 0.59 0.79 0.97 1.11 0.96 1.45 1.33 1.42 1.56
0.47 0.59 0.81 0.25 0.22 0.07 0.07 0.25 0.06 0.02 0.01 0.01 0.03 0.00 0.01 0.00 0.01 0.06 0.04 0.03 0.03 0.16 0.04 0.03 0.04 0.15 0.03 0.02 0.04 0.03 0.02 0.07 0.08 0.08 0.06 0.27 0.36 0.18 0.17 0.00 0.01 0.03 0.07 0.04 0.01 0.03 0.02 0.01 0.05 0.01 0.11 0.07 0.02 0.02 0.00 0.00 0.00 0.00 0.00 0.02 0.00 0.04 0.01 0.14 0.19 0.27 0.09 0.07 0.04 0.20 0.10 0.49 0.39 0.52 0.60 0.44 0.54 0.49 0.66 1.02 0.75 0.53 0.69 0.87 0.74 0.85 0.93 0.71
0.22 0.76 1.55 0.55 0.24 0.10 0.09 0.15 0.13 0.09 0.10 0.06 0.01 0.00 0.00 0.01 0.02 0.06 0.05 0.03 0.09 0.04 0.03 0.03 0.08 0.05 0.03 0.06 0.02 0.06 0.03 0.09 0.04 0.21 0.19 0.19 0.39 0.15 0.03 0.01 0.01 0.00 0.00 0.08 0.00 0.03 0.00 0.00 0.01 0.04 0.15 0.03 0.02 0.00 0.00 0.00 0.00 0.00 0.00 0.00 0.00 0.06 0.09 0.09 0.13 0.21 0.13 0.12 0.07 0.18 0.07 0.80 0.32 0.54 0.99 0.61 0.44 0.48 0.46 0.58 0.58 0.71 0.66 0.43 0.66 0.44 1.10 1.06
0.41 1.62 0.71 0.64 0.29 0.18 0.33 0.18 0.11 0.04 0.10 0.04 0.05 0.03 0.00 0.01 0.02 0.05 0.03 0.03 0.05 0.07 0.02 0.01 0.02 0.01 0.08 0.08 0.03 0.10 0.06 0.13 0.03 0.10 0.14 0.07 0.24 0.04 0.01 0.01 0.01 0.04 0.08 0.40 0.05 0.08 0.08 0.02 0.01 0.10 0.07 0.18 0.15 0.04 0.01 0.00 0.00 0.01 0.02 0.01 0.00 0.01 0.04 0.10 0.08 0.13 0.01 0.04 0.19 0.13 0.22 0.43 0.47 0.70 0.53 0.42 0.42 0.41 0.65 0.52 0.43 0.67 0.60 0.42 0.32 0.45 0.49 0.58
0.68 1.22 1.11 0.89 0.28 0.30 0.40 0.48 0.08 0.05 0.14 0.09 0.14 0.06 0.13 0.01 0.01 0.04 0.04 0.06 0.03 0.02 0.02 0.01 0.00 0.06 0.14 0.02 0.01 0.08 0.06 0.13 0.10 0.17 0.06 0.22 0.30 0.00 0.01 0.02 0.01 0.13 0.10 0.02 0.02 0.02 0.05 0.07 0.02 0.07 0.24 0.21 0.23 0.23 0.21 0.12 0.05 0.02 0.02 0.01 0.05 0.02 0.08 0.15 0.05 0.06 0.05 0.07 0.12 0.10 0.56 0.39 0.57 0.62 0.59 0.31 0.30 0.34 0.38 0.40 0.51 1.03 1.07 0.63 0.61 0.89 0.65 0.76
1.02 1.13 0.68 0.89 1.19 0.77 0.15 0.19 0.14 0.24 0.13 0.16 0.04 0.07 0.01 0.10 0.02 0.03 0.02 0.05 0.02 0.02 0.12 0.01 0.00 0.01 0.04 0.06 0.04 0.06 0.12 0.08 0.11 0.05 0.06 0.30 0.18 0.07 0.03 0.01 0.04 0.03 0.04 0.02 0.08 0.10 0.25 0.05 0.10 0.10 0.28 0.47 0.27 0.24 0.14 0.04 0.03 0.06 0.07 0.05 0.06 0.00 0.03 0.07 0.12 0.15 0.12 0.15 0.11 0.10 0.13 0.42 0.45 0.49 0.39 0.42 0.27 0.47 0.46 0.37 0.30 0.32 0.36 0.40 0.50 0.53 0.62 0.52
0.80 0.96 0.49 0.32 0.23 0.56 0.44 0.19 0.16 0.16 0.13 0.10 0.10 0.03 0.07 0.05 0.14 0.09 0.04 0.16 0.02 0.01 0.10 0.04 0.01 0.01 0.07 0.05 0.02 0.07 0.15 0.12 0.04 0.04 0.19 0.34 0.25 0.27 0.02 0.16 0.05 0.00 0.01 0.03 0.07 0.21 0.58 0.33 0.17 0.05 0.22 0.11 0.03 0.14 0.03 0.04 0.12 0.11 0.13 0.06 0.02 0.05 0.04 0.08 0.03 0.13 0.26 0.16 0.26 0.22 0.14 0.13 0.31 0.29 0.26 0.35 0.38 0.45 0.48 0.24 0.23 0.38 0.53 0.54 0.43 0.38 0.46 0.50
0.75 0.87 0.53 0.54 0.30 0.38 0.33 0.68 0.31 0.37 0.22 0.11 0.37 0.06 0.08 0.18 0.15 0.27 0.12 0.03 0.02 0.01 0.13 0.07 0.01 0.00 0.01 0.04 0.05 0.09 0.12 0.08 0.11 0.04 0.18 0.13 0.10 0.35 0.52 0.20 0.26 0.08 0.05 0.08 0.03 0.03 0.21 0.23 0.36 0.31 0.24 0.21 0.11 0.03 0.09 0.05 0.09 0.13 0.11 0.18 0.16 0.11 0.07 0.13 0.10 0.12 0.17 0.11 0.45 0.40 0.48 0.13 0.25 0.28 0.33 0.20 0.17 0.18 0.21 0.27 0.24 0.45 0.37 0.43 0.42 0.58 0.54 0.39
1.24 0.80 0.85 0.32 0.19 0.38 0.21 0.32 0.26 0.27 0.54 0.31 0.21 0.05 0.14 0.14 0.24 0.22 0.21 0.40 0.05 0.08 0.02 0.05 0.02 0.01 0.02 0.11 0.10 0.18 0.14 0.13 0.05 0.22 0.23 0.19 0.31 0.31 0.49 0.38 0.22 0.12 0.04 0.18 0.06 0.10 0.09 0.35 0.41 0.36 0.38 0.49 0.22 0.15 0.11 0.20 0.17 0.10 0.03 0.16 0.19 0.20 0.20 0.08 0.06 0.12 0.17 0.12 0.12 0.10 0.11 0.21 0.36 0.42 0.25 0.31 0.23 0.15 0.23 0.15 0.23 0.43 0.46 0.38 0.54 0.29 0.19 0.22
1.11 1.32 1.29 0.29 0.29 0.26 0.24 0.55 0.52 0.40 0.34 0.14 0.20 0.13 0.22 0.27 0.25 0.34 0.21 0.23 0.16 0.18 0.06 0.26 0.05 0.02 0.01 0.12 0.08 0.20 0.24 0.20 0.22 0.13 0.17 0.24 0.43 0.21 0.33 0.53 0.77 0.12 0.07 0.18 0.11 0.23 0.31 0.59 0.12 0.37 0.36 0.31 0.45 0.26 0.22 0.37 0.14 0.17 0.02 0.04 0.04 0.12 0.05 0.07 0.12 0.08 0.07 0.17 0.13 0.02 0.01 0.16 0.32 0.19 0.22 0.35 0.22 0.16 0.15 0.16 0.15 0.18 0.27 0.47 0.30 0.43 0.44 0.24
0.87 0.75 0.66 0.40 0.37 0.26 0.17 0.35 0.30 0.43 0.55 0.41 0.27 0.34 0.25 0.20 0.26 0.36 0.56 0.13 0.14 0.24 0.11 0.23 0.09 0.09 0.03 0.07 0.04 0.11 0.14 0.15 0.10 0.13 0.54 0.21 0.24 0.29 0.14 0.39 0.03 0.33 0.20 0.38 0.19 0.53 0.14 0.91 0.38 0.76 0.33 0.51 0.45 0.50 0.38 0.48 0.32 0.33 0.21 0.09 0.06 0.22 0.18 0.08 0.18 0.26 0.21 0.28 0.28 0.24 0.03 0.10 0.38 0.18 0.18 0.15 0.17 0.16 0.13 0.14 0.14 0.42 0.25 0.23 0.29 0.17 0.26 0.45
0.64 0.75 0.39 0.42 0.19 0.04 0.25 0.08 0.17 0.21 0.37 0.52 0.66 0.45 0.27 0.39 0.19 0.21 0.42 0.08 0.12 0.07 0.10 0.13 0.13 0.14 0.33 0.23 0.12 0.21 0.14 0.14 0.15 0.06 0.11 0.16 0.20 0.52 0.04 0.26 0.22 0.42 0.34 0.09 0.27 0.35 0.44 0.19 0.34 0.33 0.33 0.46 0.67 0.53 0.59 0.37 0.42 0.53 0.37 0.18 0.15 0.22 0.20 0.12 0.12 0.13 0.15 0.32 0.72 0.46 0.24 0.13 0.19 0.17 0.11 0.18 0.16 0.19 0.16 0.16 0.14 0.08 0.12 0.09 0.10 0.11 0.19 0.23